Date,TemperatureHighF,TemperatureAvgF,TemperatureLowF,DewpointHighF,DewpointAvgF,DewpointLowF,HumidityHigh,HumidityAvg,HumidityLow,PressureMaxIn,PressureMinIn,WindSpeedMaxMPH,WindSpeedAvgMPH,GustSpeedMaxMPH,PrecipitationSumIn
2013-3-1,65.0,53.3,46.0,47.0,43.2,35.0,97,71,48,30.53,30.36,2,0,5,0.01
2013-3-2,61.0,56.3,52.0,50.0,43.6,19.0,76,64,24,30.36,30.19,0,0,3,0.00
2013-3-3,58.0,49.0,40.0,47.0,40.3,34.0,95,73,49,30.19,30.13,3,0,5,0.00
2013-3-4,54.0,42.9,36.0,47.0,39.1,6.0,96,87,28,30.19,30.10,4,0,6,0.00
2013-3-5,43.0,39.7,35.0,42.0,35.8,2.0,97,89,21,30.10,29.78,12,3,33,0.99
2013-3-6,42.0,41.3,41.0,41.0,40.3,40.0,97,97,97,29.80,29.79,10,9,18,0.07
2013-3-9,46.0,46.0,46.0,36.0,36.0,36.0,68,68,68,30.40,30.40,0,0,0,0.00
2013-3-10,64.0,51.1,44.0,39.0,35.2,29.0,70,56,27,30.41,30.35,0,0,4,0.00
2013-3-11,65.0,54.9,49.0,47.0,40.2,34.0,66,58,48,30.36,30.24,3,0,6,0.00
2013-3-12,68.0,54.8,46.0,53.0,43.1,37.0,78,65,47,30.26,30.21,2,0,7,0.00
2013-3-13,70.0,59.9,51.0,51.0,42.8,33.0,68,54,37,30.28,30.21,3,0,7,0.00
2013-3-14,63.0,54.8,45.0,43.0,36.2,23.0,74,51,30,30.30,30.20,1,0,5,0.00
2013-3-15,65.0,52.4,45.0,50.0,43.2,37.0,84,71,53,30.26,30.19,3,0,12,0.00
2013-3-16,61.0,49.9,44.0,43.0,38.7,32.0,84,67,39,30.25,30.18,2,0,8,0.00
2013-3-17,58.0,45.3,39.0,40.0,36.8,31.0,95,74,45,30.25,30.17,2,0,6,0.00
2013-3-18,60.0,49.4,42.0,40.0,32.4,27.0,72,52,40,30.22,30.15,1,0,4,0.00
2013-3-19,54.0,47.3,39.0,45.0,38.4,23.0,96,73,40,30.21,30.11,6,1,13,0.02
2013-3-20,50.0,45.9,38.0,49.0,44.9,37.0,98,97,95,30.22,30.08,6,2,12,0.24
2013-3-21,52.0,40.0,33.0,42.0,36.0,32.0,97,86,62,30.23,30.16,3,0,9,0.00
2013-3-22,53.0,41.4,34.0,39.0,31.9,23.0,90,70,43,30.23,30.17,3,0,6,0.01
2013-3-23,58.0,45.4,36.0,39.0,31.4,24.0,86,60,33,30.22,30.17,1,0,5,0.00
2013-3-24,62.0,50.0,43.0,45.0,35.4,28.0,65,57,45,30.19,30.10,2,0,2,0.00
2013-3-25,52.0,43.4,38.0,43.0,36.1,17.0,94,76,34,30.11,30.04,2,0,6,0.00
2013-3-26,59.0,46.4,36.0,47.0,40.6,35.0,95,81,59,30.08,30.03,3,0,7,0.00
2013-3-27,52.0,47.7,45.0,51.0,46.0,42.0,96,93,89,30.09,30.02,2,0,5,0.02
2013-3-28,54.0,48.3,45.0,50.0,46.1,42.0,95,92,79,30.17,30.08,3,0,11,0.02
2013-3-29,69.0,56.6,49.0,54.0,48.1,44.0,93,74,51,30.19,30.14,4,0,12,0.00
2013-3-30,63.0,53.6,48.0,50.0,45.8,-99.9,95,78,51,30.17,30.10,5,1,16,0.03
2013-3-31,52.0,48.4,46.0,51.0,47.4,45.0,98,96,94,30.14,30.08,4,1,12,0.13